Time,TemperatureF,DewpointF,PressureIn,WindDirection,WindDirectionDegrees,WindSpeedMPH,WindSpeedGustMPH,Humidity,HourlyPrecipIn,Conditions,Clouds,dailyrainin,SoftwareType,DateUTC
2013-02-02 00:02:00,20.0,11.0,-100.00,SW,235,9.0,12.0,66,0.00,,,-99.99,,2013-02-02 06:02:00,
2013-02-02 00:12:00,20.0,11.0,-100.00,WSW,255,9.0,13.0,66,0.00,,,-99.99,,2013-02-02 06:12:00,
2013-02-02 00:21:00,21.0,12.0,-100.00,WSW,245,9.0,16.0,67,0.00,,,-99.99,,2013-02-02 06:21:00,
2013-02-02 00:31:00,22.0,13.0,-100.00,WSW,250,12.0,16.0,67,0.00,,,-99.99,,2013-02-02 06:31:00,
2013-02-02 00:41:00,22.0,13.0,-100.00,WSW,250,12.0,16.0,67,0.00,,,-99.99,,2013-02-02 06:41:00,
2013-02-02 00:51:00,22.0,13.0,-100.00,West,260,10.0,17.0,67,0.00,,,-99.99,,2013-02-02 06:51:00,
2013-02-02 01:02:00,22.0,13.0,-100.00,West,260,10.0,17.0,67,0.00,,,-99.99,,2013-02-02 07:02:00,
2013-02-02 01:11:00,22.0,13.0,-100.00,West,260,10.0,17.0,67,0.00,,,-99.99,,2013-02-02 07:11:00,
2013-02-02 01:21:00,22.0,13.0,-100.00,West,260,10.0,17.0,67,0.00,,,-99.99,,2013-02-02 07:21:00,
2013-02-02 01:31:00,22.0,13.0,-100.00,West,260,10.0,17.0,67,0.00,,,-99.99,,2013-02-02 07:31:00,
2013-02-02 02:53:00,24.0,16.0,-100.00,West,265,12.0,17.0,72,0.00,,,-99.99,,2013-02-02 08:53:00,
2013-02-02 03:01:00,24.0,16.0,-100.00,West,265,12.0,17.0,72,0.00,,,-99.99,,2013-02-02 09:01:00,
2013-02-02 03:11:00,24.0,17.0,-100.00,West,275,12.0,20.0,73,0.00,,,-99.99,,2013-02-02 09:11:00,
2013-02-02 03:22:00,24.0,17.0,-100.00,West,265,13.0,21.0,74,0.00,,,-99.99,,2013-02-02 09:22:00,
2013-02-02 03:31:00,24.0,17.0,-100.00,West,270,15.0,19.0,77,0.00,,,-99.99,,2013-02-02 09:31:00,
2013-02-02 03:41:00,24.0,17.0,-100.00,West,270,15.0,19.0,77,0.00,,,-99.99,,2013-02-02 09:41:00,
2013-02-02 03:52:00,24.0,18.0,-100.00,West,275,12.0,19.0,78,0.00,,,-99.99,,2013-02-02 09:52:00,
2013-02-02 04:01:00,24.0,18.0,-100.00,West,275,12.0,19.0,78,0.00,,,-99.99,,2013-02-02 10:01:00,
2013-02-02 04:11:00,24.0,18.0,-100.00,West,275,14.0,19.0,79,0.00,,,-99.99,,2013-02-02 10:11:00,
2013-02-02 04:21:00,24.0,18.0,-100.00,West,270,12.0,19.0,79,0.00,,,-99.99,,2013-02-02 10:21:00,
2013-02-02 04:31:00,24.0,19.0,-100.00,West,275,13.0,17.0,81,0.00,,,-99.99,,2013-02-02 10:31:00,
2013-02-02 04:41:00,24.0,19.0,-100.00,West,275,13.0,17.0,81,0.00,,,-99.99,,2013-02-02 10:41:00,
2013-02-02 04:51:00,24.0,19.0,-100.00,WNW,285,13.0,17.0,81,0.00,,,-99.99,,2013-02-02 10:51:00,
2013-02-02 05:01:00,24.0,19.0,-100.00,WNW,285,13.0,17.0,81,0.00,,,-99.99,,2013-02-02 11:01:00,
2013-02-02 05:11:00,24.0,19.0,-100.00,West,280,14.0,17.0,81,0.00,,,-99.99,,2013-02-02 11:11:00,
2013-02-02 05:21:00,24.0,19.0,-100.00,WNW,285,13.0,17.0,81,0.00,,,-99.99,,2013-02-02 11:21:00,
2013-02-02 05:32:00,24.0,19.0,-100.00,WNW,285,14.0,17.0,81,0.00,,,-99.99,,2013-02-02 11:32:00,
2013-02-02 05:41:00,24.0,19.0,-100.00,WNW,285,14.0,17.0,81,0.00,,,-99.99,,2013-02-02 11:41:00,
2013-02-02 05:52:00,24.0,20.0,-100.00,WNW,285,11.0,16.0,81,0.00,,,-99.99,,2013-02-02 11:52:00,
2013-02-02 06:01:00,24.0,20.0,-100.00,WNW,285,11.0,16.0,81,0.00,,,-99.99,,2013-02-02 12:01:00,
2013-02-02 06:11:00,24.0,20.0,-100.00,WNW,295,11.0,15.0,81,0.00,,,-99.99,,2013-02-02 12:11:00,
2013-02-02 06:22:00,25.0,20.0,-100.00,WNW,290,11.0,14.0,81,0.00,,,-99.99,,2013-02-02 12:22:00,
2013-02-02 06:32:00,25.0,20.0,-100.00,WNW,300,11.0,14.0,80,0.00,,,-99.99,,2013-02-02 12:32:00,
2013-02-02 06:42:00,25.0,20.0,-100.00,WNW,300,11.0,14.0,80,0.00,,,-99.99,,2013-02-02 12:42:00,
2013-02-02 06:52:00,25.0,20.0,-100.00,WNW,295,11.0,13.0,80,0.00,,,-99.99,,2013-02-02 12:52:00,
2013-02-02 07:02:00,25.0,20.0,-100.00,WNW,295,11.0,13.0,80,0.00,,,-99.99,,2013-02-02 13:02:00,
2013-02-02 07:11:00,25.0,20.0,-100.00,NW,305,9.0,12.0,80,0.00,,,-99.99,,2013-02-02 13:11:00,
2013-02-02 07:21:00,25.0,20.0,-100.00,NW,315,10.0,14.0,80,0.00,,,-99.99,,2013-02-02 13:21:00,
2013-02-02 07:32:00,25.0,19.0,-100.00,North,355,14.0,19.0,78,0.00,,,-99.99,,2013-02-02 13:32:00,
2013-02-02 07:42:00,25.0,19.0,-100.00,North,355,14.0,19.0,78,0.00,,,-99.99,,2013-02-02 13:42:00,
2013-02-02 07:51:00,25.0,17.0,-100.00,North,10,15.0,21.0,73,0.00,,,-99.99,,2013-02-02 13:51:00,
2013-02-02 08:02:00,25.0,17.0,-100.00,North,10,15.0,21.0,73,0.00,,,-99.99,,2013-02-02 14:02:00,
2013-02-02 08:11:00,24.0,17.0,-100.00,North,10,14.0,21.0,72,0.00,,,-99.99,,2013-02-02 14:11:00,
2013-02-02 08:22:00,23.0,15.0,-100.00,NNE,20,19.0,23.0,72,0.00,,,-99.99,,2013-02-02 14:22:00,
2013-02-02 08:32:00,22.0,15.0,-100.00,NNE,30,16.0,22.0,71,0.00,,,-99.99,,2013-02-02 14:32:00,
2013-02-02 08:42:00,22.0,15.0,-100.00,NNE,30,16.0,22.0,71,0.00,,,-99.99,,2013-02-02 14:42:00,
2013-02-02 08:52:00,21.0,13.0,-100.00,NE,40,19.0,24.0,71,0.00,,,-99.99,,2013-02-02 14:52:00,
2013-02-02 09:03:00,21.0,13.0,-100.00,NE,40,19.0,24.0,71,0.00,,,-99.99,,2013-02-02 15:03:00,
2013-02-02 09:12:00,20.0,13.0,-100.00,NNE,30,18.0,21.0,71,0.00,,,-99.99,,2013-02-02 15:12:00,
2013-02-02 09:22:00,20.0,12.0,-100.00,NE,35,19.0,24.0,71,0.00,,,-99.99,,2013-02-02 15:22:00,
2013-02-02 09:32:00,19.0,11.0,-100.00,NE,35,18.0,25.0,72,0.00,,,-99.99,,2013-02-02 15:32:00,
2013-02-02 09:42:00,19.0,11.0,-100.00,NE,35,18.0,25.0,72,0.00,,,-99.99,,2013-02-02 15:42:00,
2013-02-02 09:52:00,17.0,10.0,-100.00,NE,35,19.0,24.0,72,0.00,,,-99.99,,2013-02-02 15:52:00,
2013-02-02 10:03:00,17.0,10.0,-100.00,NE,35,19.0,24.0,72,0.00,,,-99.99,,2013-02-02 16:03:00,
2013-02-02 10:11:00,17.0,10.0,-100.00,NNE,25,18.0,22.0,73,0.00,,,-99.99,,2013-02-02 16:11:00,
2013-02-02 10:22:00,17.0,10.0,-100.00,NNE,30,16.0,21.0,73,0.00,,,-99.99,,2013-02-02 16:22:00,
2013-02-02 10:32:00,16.0,9.0,-100.00,NE,40,17.0,22.0,73,0.00,,,-99.99,,2013-02-02 16:32:00,
2013-02-02 10:42:00,16.0,9.0,-100.00,NE,40,17.0,22.0,73,0.00,,,-99.99,,2013-02-02 16:42:00,
2013-02-02 10:52:00,16.0,9.0,-100.00,NE,50,15.0,21.0,71,0.00,,,-99.99,,2013-02-02 16:52:00,
2013-02-02 11:02:00,16.0,9.0,-100.00,NE,50,15.0,21.0,71,0.00,,,-99.99,,2013-02-02 17:02:00,
2013-02-02 11:11:00,16.0,8.0,-100.00,NE,40,15.0,20.0,70,0.00,,,-99.99,,2013-02-02 17:11:00,
2013-02-02 11:22:00,16.0,8.0,-100.00,NE,45,14.0,19.0,69,0.00,,,-99.99,,2013-02-02 17:22:00,
2013-02-02 11:32:00,16.0,8.0,-100.00,NE,40,14.0,17.0,69,0.00,,,-99.99,,2013-02-02 17:32:00,
2013-02-02 11:41:00,16.0,8.0,-100.00,NE,40,14.0,17.0,69,0.00,,,-99.99,,2013-02-02 17:41:00,
2013-02-02 11:52:00,16.0,8.0,-100.00,NE,40,12.0,15.0,69,0.00,,,-99.99,,2013-02-02 17:52:00,
2013-02-02 12:02:00,16.0,8.0,-100.00,NE,40,12.0,15.0,69,0.00,,,-99.99,,2013-02-02 18:02:00,
2013-02-02 12:12:00,17.0,8.0,-100.00,NNE,30,11.0,13.0,68,0.00,,,-99.99,,2013-02-02 18:12:00,
2013-02-02 12:22:00,17.0,8.0,-100.00,NNE,30,11.0,13.0,68,0.00,,,-99.99,,2013-02-02 18:22:00,
2013-02-02 12:32:00,17.0,8.0,-100.00,NE,35,9.0,13.0,66,0.00,,,-99.99,,2013-02-02 18:32:00,
2013-02-02 12:42:00,17.0,8.0,-100.00,NE,35,9.0,13.0,66,0.00,,,-99.99,,2013-02-02 18:42:00,
2013-02-02 12:52:00,17.0,7.0,-100.00,NNE,15,9.0,12.0,64,0.00,,,-99.99,,2013-02-02 18:52:00,
2013-02-02 13:02:00,17.0,7.0,-100.00,NNE,15,9.0,12.0,64,0.00,,,-99.99,,2013-02-02 19:02:00,
2013-02-02 13:12:00,18.0,8.0,-100.00,North,0,6.0,12.0,63,0.00,,,-99.99,,2013-02-02 19:12:00,
2013-02-02 13:21:00,18.0,8.0,-100.00,North,0,7.0,11.0,63,0.00,,,-99.99,,2013-02-02 19:21:00,
2013-02-02 13:32:00,18.0,8.0,-100.00,North,0,9.0,11.0,61,0.00,,,-99.99,,2013-02-02 19:32:00,
2013-02-02 13:41:00,18.0,8.0,-100.00,North,0,9.0,11.0,61,0.00,,,-99.99,,2013-02-02 19:41:00,
2013-02-02 13:51:00,18.0,6.0,-100.00,North,0,11.0,14.0,58,0.00,,,-99.99,,2013-02-02 19:51:00,
2013-02-02 14:01:00,18.0,6.0,-100.00,North,0,11.0,14.0,58,0.00,,,-99.99,,2013-02-02 20:01:00,
2013-02-02 14:11:00,18.0,5.0,-100.00,North,0,10.0,13.0,57,0.00,,,-99.99,,2013-02-02 20:11:00,
2013-02-02 14:21:00,18.0,6.0,-100.00,North,0,11.0,14.0,57,0.00,,,-99.99,,2013-02-02 20:21:00,
2013-02-02 14:32:00,18.0,6.0,-100.00,North,350,9.0,13.0,57,0.00,,,-99.99,,2013-02-02 20:32:00,
2013-02-02 14:41:00,18.0,6.0,-100.00,North,350,9.0,13.0,57,0.00,,,-99.99,,2013-02-02 20:41:00,
2013-02-02 14:52:00,18.0,5.0,-100.00,North,350,9.0,15.0,56,0.00,,,-99.99,,2013-02-02 20:52:00,
2013-02-02 15:02:00,18.0,5.0,-100.00,North,350,9.0,15.0,56,0.00,,,-99.99,,2013-02-02 21:02:00,
2013-02-02 15:11:00,18.0,5.0,-100.00,North,0,11.0,14.0,57,0.00,,,-99.99,,2013-02-02 21:11:00,
2013-02-02 15:21:00,18.0,5.0,-100.00,North,350,11.0,16.0,57,0.00,,,-99.99,,2013-02-02 21:21:00,
2013-02-02 15:32:00,18.0,5.0,-100.00,North,355,9.0,14.0,57,0.00,,,-99.99,,2013-02-02 21:32:00,
2013-02-02 15:42:00,18.0,5.0,-100.00,North,355,9.0,14.0,57,0.00,,,-99.99,,2013-02-02 21:42:00,
2013-02-02 15:51:00,18.0,5.0,-100.00,North,350,9.0,12.0,57,0.00,,,-99.99,,2013-02-02 21:51:00,
2013-02-02 16:02:00,18.0,5.0,-100.00,North,350,9.0,12.0,57,0.00,,,-99.99,,2013-02-02 22:02:00,
2013-02-02 16:11:00,18.0,5.0,-100.00,NNW,340,9.0,13.0,57,0.00,,,-99.99,,2013-02-02 22:11:00,
2013-02-02 16:21:00,18.0,5.0,-100.00,NNW,335,11.0,14.0,57,0.00,,,-99.99,,2013-02-02 22:21:00,
2013-02-02 16:32:00,17.0,5.0,-100.00,NNW,335,11.0,14.0,57,0.00,,,-99.99,,2013-02-02 22:32:00,
2013-02-02 16:42:00,17.0,5.0,-100.00,NNW,335,11.0,14.0,57,0.00,,,-99.99,,2013-02-02 22:42:00,
2013-02-02 16:52:00,17.0,5.0,-100.00,NNW,335,10.0,12.0,58,0.00,,,-99.99,,2013-02-02 22:52:00,
2013-02-02 17:02:00,17.0,5.0,-100.00,NNW,335,10.0,12.0,58,0.00,,,-99.99,,2013-02-02 23:02:00,
2013-02-02 17:11:00,17.0,5.0,-100.00,North,355,8.0,12.0,58,0.00,,,-99.99,,2013-02-02 23:11:00,
2013-02-02 17:21:00,17.0,5.0,-100.00,North,350,9.0,11.0,58,0.00,,,-99.99,,2013-02-02 23:21:00,
2013-02-02 17:32:00,17.0,5.0,-100.00,NNW,340,7.0,10.0,58,0.00,,,-99.99,,2013-02-02 23:32:00,
2013-02-02 17:41:00,17.0,5.0,-100.00,NNW,340,7.0,10.0,58,0.00,,,-99.99,,2013-02-02 23:41:00,
2013-02-02 17:52:00,17.0,5.0,-100.00,NNW,340,5.0,8.0,59,0.00,,,-99.99,,2013-02-02 23:52:00,
2013-02-02 18:02:00,17.0,5.0,-100.00,NNW,340,5.0,8.0,59,0.00,,,-99.99,,2013-02-03 00:02:00,
2013-02-02 18:11:00,17.0,5.0,-100.00,NNW,345,5.0,9.0,59,0.00,,,-99.99,,2013-02-03 00:11:00,
2013-02-02 18:21:00,17.0,5.0,-100.00,North,0,4.0,6.0,60,0.00,,,-99.99,,2013-02-03 00:21:00,
2013-02-02 18:32:00,16.0,5.0,-100.00,NNW,345,4.0,6.0,60,0.00,,,-99.99,,2013-02-03 00:32:00,
2013-02-02 18:41:00,16.0,5.0,-100.00,NNW,345,4.0,6.0,60,0.00,,,-99.99,,2013-02-03 00:41:00,
2013-02-02 18:51:00,16.0,6.0,-100.00,North,0,2.0,4.0,63,0.00,,,-99.99,,2013-02-03 00:51:00,
2013-02-02 19:02:00,16.0,6.0,-100.00,North,0,2.0,4.0,63,0.00,,,-99.99,,2013-02-03 01:02:00,
2013-02-02 19:11:00,16.0,6.0,-100.00,North,0,2.0,4.0,64,0.00,,,-99.99,,2013-02-03 01:11:00,
2013-02-02 19:21:00,16.0,6.0,-100.00,North,350,4.0,4.0,64,0.00,,,-99.99,,2013-02-03 01:21:00,
2013-02-02 19:32:00,15.0,6.0,-100.00,NNW,330,2.0,4.0,65,0.00,,,-99.99,,2013-02-03 01:32:00,
2013-02-02 19:41:00,15.0,6.0,-100.00,NNW,330,2.0,4.0,65,0.00,,,-99.99,,2013-02-03 01:41:00,
2013-02-02 19:52:00,14.0,5.0,-100.00,NW,310,1.0,1.0,65,0.00,,,-99.99,,2013-02-03 01:52:00,
2013-02-02 20:01:00,14.0,5.0,-100.00,NW,310,1.0,1.0,65,0.00,,,-99.99,,2013-02-03 02:01:00,
2013-02-02 20:11:00,14.0,5.0,-100.00,West,265,1.0,1.0,66,0.00,,,-99.99,,2013-02-03 02:11:00,
2013-02-02 20:21:00,14.0,5.0,-100.00,West,280,1.0,2.0,66,0.00,,,-99.99,,2013-02-03 02:21:00,
2013-02-02 20:32:00,15.0,6.0,-100.00,WNW,295,1.0,2.0,67,0.00,,,-99.99,,2013-02-03 02:32:00,
2013-02-02 20:41:00,15.0,6.0,-100.00,WNW,295,1.0,2.0,67,0.00,,,-99.99,,2013-02-03 02:41:00,
2013-02-02 20:52:00,15.0,7.0,-100.00,WNW,285,1.0,2.0,68,0.00,,,-99.99,,2013-02-03 02:52:00,
2013-02-02 21:02:00,15.0,7.0,-100.00,WNW,285,1.0,2.0,68,0.00,,,-99.99,,2013-02-03 03:02:00,
2013-02-02 21:11:00,15.0,7.0,-100.00,West,265,1.0,2.0,69,0.00,,,-99.99,,2013-02-03 03:11:00,
2013-02-02 21:21:00,16.0,8.0,-100.00,West,270,2.0,3.0,69,0.00,,,-99.99,,2013-02-03 03:21:00,
2013-02-02 21:31:00,16.0,8.0,-100.00,West,265,2.0,3.0,69,0.00,,,-99.99,,2013-02-03 03:31:00,
2013-02-02 21:41:00,16.0,8.0,-100.00,West,265,2.0,3.0,69,0.00,,,-99.99,,2013-02-03 03:41:00,
2013-02-02 21:51:00,16.0,8.0,-100.00,West,270,4.0,6.0,69,0.00,,,-99.99,,2013-02-03 03:51:00,
2013-02-02 22:01:00,16.0,8.0,-100.00,West,270,4.0,6.0,69,0.00,,,-99.99,,2013-02-03 04:01:00,
2013-02-02 22:11:00,16.0,8.0,-100.00,WNW,285,6.0,8.0,70,0.00,,,-99.99,,2013-02-03 04:11:00,
2013-02-02 22:21:00,16.0,8.0,-100.00,West,280,4.0,7.0,70,0.00,,,-99.99,,2013-02-03 04:21:00,
2013-02-02 22:31:00,16.0,9.0,-100.00,West,270,4.0,6.0,71,0.03,,,-99.99,,2013-02-03 04:31:00,
2013-02-02 22:42:00,16.0,9.0,-100.00,West,270,4.0,6.0,71,0.03,,,-99.99,,2013-02-03 04:42:00,
2013-02-02 22:51:00,16.0,9.0,-100.00,West,280,6.0,7.0,72,0.03,,,-99.99,,2013-02-03 04:51:00,
2013-02-02 23:03:00,16.0,9.0,-100.00,West,280,6.0,7.0,72,0.03,,,-99.99,,2013-02-03 05:03:00,
2013-02-02 23:11:00,16.0,9.0,-100.00,West,270,6.0,8.0,72,0.00,,,-99.99,,2013-02-03 05:11:00,
2013-02-02 23:22:00,16.0,9.0,-100.00,West,265,4.0,7.0,73,0.01,,,-99.99,,2013-02-03 05:22:00,
2013-02-02 23:32:00,16.0,9.0,-100.00,West,270,3.0,6.0,74,0.01,,,-99.99,,2013-02-03 05:32:00,
2013-02-02 23:41:00,16.0,9.0,-100.00,West,270,3.0,6.0,74,0.01,,,-99.99,,2013-02-03 05:41:00,
2013-02-02 23:52:00,16.0,10.0,-100.00,WSW,240,2.0,4.0,75,0.01,,,-99.99,,2013-02-03 05:52:00,